SCP
0 0 0 0 0 0 0 0 0 0 0 0 0 -0 0 0 0 0 0 -0 0 -0 0 0 0 0 0 -0 0 0 0 0 0 0 0 0 0 0 0 0 0 0 0
0 0 0 0 0 0 0 0 0 0 0 0 -0 -0 0 0 0 0 0 0 0 0 0 0 0 0 0 0 0 0 0 0 0 0 0 0 0 0 0 0 0 0 0
0 0 0 0 0 0 0 0 0 0 0 0 0 0 0 0 0 0 0 0 0 0 0 -0 -0 -0 -0 -0 0 -0 -0 -0 0 0 0 0 0 0 0 0 0 0 0
0 0 0 0 0 0 0 0 0 0 0 0 0 0 0 0 0 0 0 0 0 0 0 -0 -0 -0 0 0 0 -0 0 0 0 0 0 0 0 0 0 0 0 0 0
0 0 0 0 0 0 0 0 0 0 0 0 0 0 0 0 0 0 0 0 0 0 0 0 0 0 0 0 0 0 0 0 0 0 0 0 0 0 0 0 0 0 0
0 0 0 0 0 0 0 0 0 0 0 0 0 0 0 0 0 0 0 0 0 0 0 0 0 0 0 0 0 0 0 0 0 0 0 0 0 0 0 0 0 0 0
0 0 0 0 0 0 0 0 0 0 0 0 0 0 0 0 0 0 0 0 0 0 0 0 0 0 0 0 0 0 0 0 0 0 0 0 0 0 0 0 0 0 0
0 0 0 0 0 0 0 0 0 0 0 0 0 0 0 0 0 0 0 0 0 0 0 0 0 0 0 0 0 0 0 0 0 0 0 0 0 0 0 0 0 0 0
0 0 0 0 0 0 0 0 0 0 0 0 0 0 0 0 0 0 0 0 0 0 0 0 0 0 0 0 0 0 0 0 0 0 0 0 0 0 0 0 0 0 0
0 0 0 0 0 0 0 0 0 0 0 0 0 0 0 0 0 0 0 0 0 0 0 0 0 0 0 0 0 0 0 0 0 0 0 0 0 0 0 0 0 0 0
0 0 0 0 0 0 0 0 0 0 0 0 0 0 0 0 0 0 0 0 0 0 0 0 0 0 0 0 0 0 0 0 0 0 0 0 0 0 0 0 0 0 0
0 0 0 0 0 0 0 0 0 0 0 0 0 0 0 0 0 0 0 0 0 0 0 0 0 0 0 0 0 0 0 0 0 0 0 0 0 0 0 0 0 0 0
0 0 0 0 0 0 0 0 0 0 0 0 0 0 0 0 0 0 0 0 0 0 0 0 0 0 0 0 0 0 0 0 0 0 0 0 0 0 0 0 0 0 0
0 0 0 0 0 0 0 0 0 0 0 0 0 0 0 0 0 0 0 0 0 0 0 0 0 0 0 0 0 0 0 0 0 0 0 0 0 0 0 0 0 0 0
0 0 0 0 0 0 0 0 0 0 0 0 0 0 0 0 0 0 0 0 0 0 0 0 0 0 0 0 0 0 0 0 0 0 0 0 0 0 0 0 0 0 0
0 0 0 0 0 0 0 0 0 0 0 0 0 0 0 0 0 0 0 0 0 0 0 0 0 0 0 0 0 0 0 0 0 0 0 0 0 0 0 0 0 0 0
0 0 0 0 0 0 0 0 0 0 0 0 0 0 0 0 0 0 0 0 0 0 0 0 0 0 0 0 0 0 0 0 0 0 0 0 0 0 0 0 0 0 0
0 0 0 0 0 0 0 0 0 0 0 0 0 0 0 0 0 0 0 0 0 0 0 0 0 0 0 0 0 0 0 0 0 0 0 0 0 0 0 0 0 0 0
0 0 0 0 0 0 0 0 0 0 0 0 0 0 0 0 0 0 0 0 0 0 0 0 0 0 0 0 0 0 0 0 0 0 0 0 0 0 0 0 0 0 0
0 0 0 0 0 0 0 0 0 0 0 0 0 0 0 0 0 0 0 0 0 0 0 0 0 0 0 0 0 0 0 0 0 0 0 0 0 0 0 0 0 0 0
0 0 0 0 0 0 0 0 0 0 0 0 0 0 0 0 0 0 0 0 0 0 0 0 0 0 0 0 0 0 0 0 0 0 0 0 0 0 0 0 0 0 0
0 0 0 0 0 0 0 0 0 0 0 0 0 0 0 0 0 0 0 0 0 0 0 0 0 0 0 0 0 0 0 0 0 -0 0 0 -0 -0 -0 0 -0 -0 -0
0 0 0 0 0 0 0 0 0 0 0 0 0 0 0 0 0 0 0 0 0 0 0 0 0 0 0 0 0 0 0 0 0 0 0 0 -0 -0 -0 -0 -0 -0 0
0 -0 -0 -0 -0 -0 -0 0 0 0 0 0 0 0 0 0 0 0 0 0 0 0 0 0 0 0 0 0 0 0 0 0 0 0 -0 0 -0 -0 -0 0 -0 -0 -0
-0 -0 -0 -0 -0 -0 -0 -0 0 0 -0 -0 0 0 0 0 0 0 0 0 0 0 0 0 0 0 0 0 0 0 0 0 0 0 0 0 -0 -0 -0 0 -0 -0 0
-0 -0 -0 -0 -0 -0 -0 -0 -0 0 0 0 0 0 0 0 0 0 0 0 0 0 0 0 0 0 0 0 0 0 0 0 0 0 0 0 0 -0 -0 0 0 0 0
Wind_Speed_500mb
47 43 38 36 34 30 25 21 18 15 11 11 17 17 11 5 7 13 18 20 16 12 11 12 13 12 17 21 22 22 19 17 15 13 11 8 7 6 4 3 5 9 10
48 45 41 37 37 30 26 22 17 15 15 18 21 18 15 10 7 9 14 17 15 11 8 14 11 13 11 18 22 25 26 24 22 20 17 14 10 10 11 10 9 9 12
46 43 40 35 36 29 27 26 22 21 24 24 18 17 16 14 12 10 8 12 13 11 3 6 5 10 4 3 8 17 24 25 24 22 23 20 18 16 14 15 16 15 14
49 41 38 35 34 35 34 32 28 26 23 20 18 19 16 15 13 10 9 11 13 15 16 19 18 13 10 12 10 12 21 25 28 28 27 28 25 23 21 18 20 21 21
48 44 40 40 37 37 38 36 32 28 25 23 19 17 16 16 15 13 15 13 12 12 11 10 12 11 15 21 21 17 14 20 31 36 37 40 32 28 28 28 28 28 28
48 46 44 45 47 47 45 42 36 31 27 24 20 18 20 22 21 19 16 11 7 5 5 7 9 7 9 13 16 21 19 26 22 25 29 28 30 25 28 29 29 27 25
56 53 50 49 49 50 48 44 38 32 30 29 28 27 31 25 22 16 15 11 8 7 7 7 7 6 10 13 17 17 23 20 19 22 28 23 32 35 36 29 35 40 35
64 60 54 51 50 48 45 43 38 32 32 32 34 40 31 29 26 24 17 16 16 13 12 12 11 10 9 7 6 5 5 8 12 15 18 19 23 23 24 23 27 33 34
62 59 52 48 43 41 41 40 35 32 33 38 43 31 22 18 42 30 26 23 21 19 17 16 15 14 12 10 9 7 3 1 4 6 8 9 11 14 15 16 17 20 24
63 51 45 40 37 36 37 39 38 33 33 42 53 51 28 28 33 31 34 30 27 24 21 18 14 12 8 5 4 5 5 5 6 7 9 9 10 11 13 14 16 17 19
58 46 38 33 32 35 36 34 33 35 39 41 51 62 39 28 33 50 56 46 37 33 29 23 16 8 4 3 9 14 17 17 16 15 15 14 13 13 14 16 17 17 18
58 47 35 28 32 34 31 28 28 30 33 35 36 52 50 41 44 44 47 56 48 39 33 27 20 13 5 6 13 19 20 21 18 17 17 19 19 20 20 21 22 24 25
58 45 32 31 34 27 24 25 24 25 26 28 28 28 35 40 47 44 48 66 59 50 35 30 21 12 6 10 16 20 21 22 22 21 19 19 21 23 25 28 30 30 31
56 41 34 31 22 21 23 23 22 20 17 16 16 18 21 22 29 40 49 62 56 42 40 31 22 13 12 18 23 23 19 20 21 25 26 26 27 30 33 35 37 40 42
55 42 29 21 12 17 22 22 20 18 17 15 15 14 15 19 22 31 41 55 44 38 34 30 17 14 15 19 18 20 21 23 23 25 30 32 33 35 38 40 42 44 46
44 41 35 25 27 22 24 22 21 20 16 20 18 17 18 19 21 25 36 46 33 26 29 28 16 9 8 10 14 18 21 26 29 31 30 34 37 40 43 45 47 48 49
28 30 28 24 28 27 30 28 25 22 17 18 20 18 23 21 21 23 27 32 24 16 25 19 11 4 10 14 20 24 28 30 30 29 34 37 38 40 41 43 45 47 50
25 20 28 30 31 35 31 28 28 26 22 24 24 21 25 22 21 20 21 19 17 16 14 9 1 8 15 21 27 31 34 37 38 35 33 36 34 35 38 41 43 48 52
20 24 30 32 34 33 33 33 30 31 29 26 24 21 21 19 16 15 14 12 10 7 7 3 7 14 20 27 32 36 40 45 44 42 40 39 41 42 45 49 49 50 55
25 27 30 35 32 34 33 34 32 29 27 23 20 19 17 14 11 9 8 4 1 4 7 13 19 25 29 32 40 48 54 52 51 48 46 49 53 54 55 54 54 60 64
36 30 29 33 35 33 32 31 27 25 23 20 18 16 14 11 8 9 8 5 3 6 11 18 25 32 37 38 40 46 56 58 59 57 62 65 66 67 64 62 68 68 69
23 26 28 29 33 33 30 28 24 21 17 17 18 16 9 7 6 4 3 4 7 15 23 28 30 34 38 43 46 53 54 57 64 59 70 81 80 78 78 81 82 82 78
21 18 22 23 25 25 22 21 22 18 20 16 15 11 9 6 5 6 11 16 17 25 29 34 35 35 40 43 51 55 53 56 65 69 69 88 78 85 88 90 91 91 84
23 23 20 21 21 19 17 16 19 19 18 17 17 13 14 12 15 20 24 26 30 35 37 38 40 39 38 43 48 50 49 60 69 76 68 79 65 86 93 102 99 86 83
21 19 16 19 18 16 17 14 14 14 14 16 17 18 20 24 23 28 33 37 41 44 43 46 39 39 41 43 38 46 48 58 73 71 65 69 77 91 105 105 76 94 98
18 17 17 16 15 15 16 17 16 17 20 22 21 24 27 30 32 34 36 35 36 35 42 44 39 40 39 28 33 44 49 57 65 78 53 70 88 76 89 86 86 98 106
Wind_Direction_500mb
190 192 194 199 202 202 201 198 200 216 233 276 299 299 285 249 215 218 221 211 210 242 252 281 280 278 257 242 236 238 235 228 229 229 233 236 236 244 257 269 256 246 249
204 204 206 213 213 214 214 208 211 230 252 280 295 287 283 266 238 224 233 220 224 237 270 283 308 293 268 243 230 228 224 222 227 231 235 241 247 249 245 247 252 251 252
214 213 216 220 215 214 213 222 236 252 268 278 274 279 278 267 249 243 208 209 211 192 170 121 298 323 351 157 184 219 222 221 232 236 236 239 238 248 253 253 250 245 250
220 223 223 223 223 224 225 236 247 261 260 252 255 264 259 251 238 229 217 209 206 217 230 257 269 280 249 225 240 246 237 237 241 245 246 247 246 246 251 255 260 257 251
227 228 229 229 231 234 238 244 253 252 247 248 245 241 233 217 211 200 191 205 226 244 250 239 239 260 224 247 259 218 233 242 234 231 240 243 248 242 256 262 262 267 260
226 229 232 235 241 245 247 251 250 243 239 242 238 213 200 195 186 182 181 196 221 253 256 238 222 218 211 225 234 248 251 244 252 250 253 257 262 259 255 258 264 269 276
229 232 234 239 244 245 246 246 244 239 236 233 223 188 171 174 176 174 161 151 161 171 175 173 180 186 206 230 239 245 251 257 258 252 266 246 257 253 264 266 257 259 267
225 229 237 243 244 241 239 240 238 230 227 218 206 185 156 168 177 167 162 153 154 149 153 151 155 152 140 134 128 153 205 238 255 260 263 263 262 263 260 258 255 256 257
225 231 236 239 236 233 232 231 234 243 237 220 202 186 165 180 169 163 164 160 152 145 147 148 150 141 136 132 113 102 107 185 243 259 265 270 272 269 265 261 257 259 260
223 225 228 232 237 240 241 243 245 242 236 222 209 201 198 197 170 165 172 168 162 159 159 164 158 148 137 109 70 34 360 337 298 282 279 276 265 262 266 269 269 271 271
216 220 226 236 247 253 251 248 243 231 223 218 216 207 207 204 195 182 171 172 172 169 172 181 181 169 135 21 4 358 352 345 331 312 302 298 296 285 281 279 280 280 279
213 215 218 240 255 250 244 236 227 218 214 212 212 217 219 212 201 194 181 173 176 164 178 185 189 188 203 306 334 337 333 331 326 321 313 306 306 303 302 301 299 298 298
200 202 208 227 221 224 225 220 214 207 201 208 213 216 221 221 220 215 201 176 172 163 166 182 192 202 251 303 317 319 316 315 314 313 309 305 302 300 301 301 301 300 299
189 188 195 196 202 209 207 205 201 197 189 192 196 207 221 219 209 218 209 197 163 166 172 182 197 224 275 305 317 318 315 310 308 308 307 305 303 301 300 299 299 299 299
171 163 156 172 178 182 182 181 185 180 174 165 164 171 180 175 179 189 200 199 208 176 182 193 206 248 286 305 313 322 328 325 315 307 303 302 300 299 298 296 296 297 297
130 142 143 146 157 164 166 160 162 157 156 145 139 146 145 142 152 166 183 191 203 214 182 196 212 256 298 319 326 328 327 326 320 314 304 299 300 298 297 297 297 296 294
111 113 126 160 149 164 159 149 151 147 145 139 132 135 132 123 130 136 156 190 207 199 196 174 192 261 323 329 326 330 328 329 326 317 309 307 308 304 302 300 300 300 300
101 127 139 156 152 155 144 143 142 136 139 137 128 124 116 114 116 119 119 120 120 125 136 141 177 313 321 318 318 321 323 321 323 322 322 318 313 314 315 310 307 303 301
139 148 156 150 154 137 136 134 137 134 135 131 124 123 120 124 124 115 109 107 103 101 85 48 351 334 330 327 320 320 321 323 325 323 323 318 314 311 309 314 313 308 306
142 151 150 147 143 138 137 136 138 133 128 120 119 119 120 126 129 135 132 131 88 15 356 338 332 326 323 323 322 326 325 324 322 320 322 320 321 320 318 313 307 305 307
141 141 148 146 148 152 147 144 138 132 131 133 135 132 130 139 157 178 165 190 238 317 319 313 309 309 310 312 313 317 319 318 319 320 325 320 320 315 313 310 308 307 304
145 148 159 155 162 161 157 149 151 144 137 149 157 160 138 127 133 155 197 260 307 323 325 315 307 303 304 305 307 312 316 316 315 322 322 317 318 316 315 312 313 315 312
171 179 185 180 166 161 159 161 169 178 190 183 187 175 160 165 205 244 261 276 291 303 301 302 305 296 292 297 303 310 308 308 310 314 316 311 315 314 319 317 316 314 314
201 195 188 178 184 185 186 190 195 194 193 204 210 216 216 225 255 271 278 283 288 288 290 295 297 291 290 299 305 304 304 307 306 310 315 308 314 315 319 316 315 314 316
172 171 170 179 179 178 176 182 196 208 226 229 232 242 257 267 277 287 287 292 293 297 295 298 292 289 294 301 302 302 308 307 308 312 312 313 317 315 316 315 313 315 315
137 148 154 157 157 161 177 183 215 228 243 251 258 263 271 277 280 284 286 293 290 294 290 284 280 286 293 294 299 301 307 309 311 310 312 310 311 314 314 305 306 311 314
Wind_Speed_850mb
47 43 38 36 34 30 25 21 18 15 11 11 17 17 11 5 7 13 18 20 16 12 11 12 13 12 17 21 22 22 19 17 15 13 11 8 7 6 4 3 5 9 10
48 45 41 37 37 30 26 22 17 15 15 18 21 18 15 10 7 9 14 17 15 11 8 14 11 13 11 18 22 25 26 24 22 20 17 14 10 10 11 10 9 9 12
46 43 40 35 36 29 27 26 22 21 24 24 18 17 16 14 12 10 8 12 13 11 3 6 5 10 4 3 8 17 24 25 24 22 23 20 18 16 14 15 16 15 14
49 41 38 35 34 35 34 32 28 26 23 20 18 19 16 15 13 10 9 11 13 15 16 19 18 13 10 12 10 12 21 25 28 28 27 28 25 23 21 18 20 21 21
48 44 40 40 37 37 38 36 32 28 25 23 19 17 16 16 15 13 15 13 12 12 11 10 12 11 15 21 21 17 14 20 31 36 37 40 32 28 28 28 28 28 28
48 46 44 45 47 47 45 42 36 31 27 24 20 18 20 22 21 19 16 11 7 5 5 7 9 7 9 13 16 21 19 26 22 25 29 28 30 25 28 29 29 27 25
56 53 50 49 49 50 48 44 38 32 30 29 28 27 31 25 22 16 15 11 8 7 7 7 7 6 10 13 17 17 23 20 19 22 28 23 32 35 36 29 35 40 35
64 60 54 51 50 48 45 43 38 32 32 32 34 40 31 29 26 24 17 16 16 13 12 12 11 10 9 7 6 5 5 8 12 15 18 19 23 23 24 23 27 33 34
62 59 52 48 43 41 41 40 35 32 33 38 43 31 22 18 42 30 26 23 21 19 17 16 15 14 12 10 9 7 3 1 4 6 8 9 11 14 15 16 17 20 24
63 51 45 40 37 36 37 39 38 33 33 42 53 51 28 28 33 31 34 30 27 24 21 18 14 12 8 5 4 5 5 5 6 7 9 9 10 11 13 14 16 17 19
58 46 38 33 32 35 36 34 33 35 39 41 51 62 39 28 33 50 56 46 37 33 29 23 16 8 4 3 9 14 17 17 16 15 15 14 13 13 14 16 17 17 18
58 47 35 28 32 34 31 28 28 30 33 35 36 52 50 41 44 44 47 56 48 39 33 27 20 13 5 6 13 19 20 21 18 17 17 19 19 20 20 21 22 24 25
58 45 32 31 34 27 24 25 24 25 26 28 28 28 35 40 47 44 48 66 59 50 35 30 21 12 6 10 16 20 21 22 22 21 19 19 21 23 25 28 30 30 31
56 41 34 31 22 21 23 23 22 20 17 16 16 18 21 22 29 40 49 62 56 42 40 31 22 13 12 18 23 23 19 20 21 25 26 26 27 30 33 35 37 40 42
55 42 29 21 12 17 22 22 20 18 17 15 15 14 15 19 22 31 41 55 44 38 34 30 17 14 15 19 18 20 21 23 23 25 30 32 33 35 38 40 42 44 46
44 41 35 25 27 22 24 22 21 20 16 20 18 17 18 19 21 25 36 46 33 26 29 28 16 9 8 10 14 18 21 26 29 31 30 34 37 40 43 45 47 48 49
28 30 28 24 28 27 30 28 25 22 17 18 20 18 23 21 21 23 27 32 24 16 25 19 11 4 10 14 20 24 28 30 30 29 34 37 38 40 41 43 45 47 50
25 20 28 30 31 35 31 28 28 26 22 24 24 21 25 22 21 20 21 19 17 16 14 9 1 8 15 21 27 31 34 37 38 35 33 36 34 35 38 41 43 48 52
20 24 30 32 34 33 33 33 30 31 29 26 24 21 21 19 16 15 14 12 10 7 7 3 7 14 20 27 32 36 40 45 44 42 40 39 41 42 45 49 49 50 55
25 27 30 35 32 34 33 34 32 29 27 23 20 19 17 14 11 9 8 4 1 4 7 13 19 25 29 32 40 48 54 52 51 48 46 49 53 54 55 54 54 60 64
36 30 29 33 35 33 32 31 27 25 23 20 18 16 14 11 8 9 8 5 3 6 11 18 25 32 37 38 40 46 56 58 59 57 62 65 66 67 64 62 68 68 69
23 26 28 29 33 33 30 28 24 21 17 17 18 16 9 7 6 4 3 4 7 15 23 28 30 34 38 43 46 53 54 57 64 59 70 81 80 78 78 81 82 82 78
21 18 22 23 25 25 22 21 22 18 20 16 15 11 9 6 5 6 11 16 17 25 29 34 35 35 40 43 51 55 53 56 65 69 69 88 78 85 88 90 91 91 84
23 23 20 21 21 19 17 16 19 19 18 17 17 13 14 12 15 20 24 26 30 35 37 38 40 39 38 43 48 50 49 60 69 76 68 79 65 86 93 102 99 86 83
21 19 16 19 18 16 17 14 14 14 14 16 17 18 20 24 23 28 33 37 41 44 43 46 39 39 41 43 38 46 48 58 73 71 65 69 77 91 105 105 76 94 98
18 17 17 16 15 15 16 17 16 17 20 22 21 24 27 30 32 34 36 35 36 35 42 44 39 40 39 28 33 44 49 57 65 78 53 70 88 76 89 86 86 98 106
Wind_Direction_850mb
190 192 194 199 202 202 201 198 200 216 233 276 299 299 285 249 215 218 221 211 210 242 252 281 280 278 257 242 236 238 235 228 229 229 233 236 236 244 257 269 256 246 249
204 204 206 213 213 214 214 208 211 230 252 280 295 287 283 266 238 224 233 220 224 237 270 283 308 293 268 243 230 228 224 222 227 231 235 241 247 249 245 247 252 251 252
214 213 216 220 215 214 213 222 236 252 268 278 274 279 278 267 249 243 208 209 211 192 170 121 298 323 351 157 184 219 222 221 232 236 236 239 238 248 253 253 250 245 250
220 223 223 223 223 224 225 236 247 261 260 252 255 264 259 251 238 229 217 209 206 217 230 257 269 280 249 225 240 246 237 237 241 245 246 247 246 246 251 255 260 257 251
227 228 229 229 231 234 238 244 253 252 247 248 245 241 233 217 211 200 191 205 226 244 250 239 239 260 224 247 259 218 233 242 234 231 240 243 248 242 256 262 262 267 260
226 229 232 235 241 245 247 251 250 243 239 242 238 213 200 195 186 182 181 196 221 253 256 238 222 218 211 225 234 248 251 244 252 250 253 257 262 259 255 258 264 269 276
229 232 234 239 244 245 246 246 244 239 236 233 223 188 171 174 176 174 161 151 161 171 175 173 180 186 206 230 239 245 251 257 258 252 266 246 257 253 264 266 257 259 267
225 229 237 243 244 241 239 240 238 230 227 218 206 185 156 168 177 167 162 153 154 149 153 151 155 152 140 134 128 153 205 238 255 260 263 263 262 263 260 258 255 256 257
225 231 236 239 236 233 232 231 234 243 237 220 202 186 165 180 169 163 164 160 152 145 147 148 150 141 136 132 113 102 107 185 243 259 265 270 272 269 265 261 257 259 260
223 225 228 232 237 240 241 243 245 242 236 222 209 201 198 197 170 165 172 168 162 159 159 164 158 148 137 109 70 34 360 337 298 282 279 276 265 262 266 269 269 271 271
216 220 226 236 247 253 251 248 243 231 223 218 216 207 207 204 195 182 171 172 172 169 172 181 181 169 135 21 4 358 352 345 331 312 302 298 296 285 281 279 280 280 279
213 215 218 240 255 250 244 236 227 218 214 212 212 217 219 212 201 194 181 173 176 164 178 185 189 188 203 306 334 337 333 331 326 321 313 306 306 303 302 301 299 298 298
200 202 208 227 221 224 225 220 214 207 201 208 213 216 221 221 220 215 201 176 172 163 166 182 192 202 251 303 317 319 316 315 314 313 309 305 302 300 301 301 301 300 299
189 188 195 196 202 209 207 205 201 197 189 192 196 207 221 219 209 218 209 197 163 166 172 182 197 224 275 305 317 318 315 310 308 308 307 305 303 301 300 299 299 299 299
171 163 156 172 178 182 182 181 185 180 174 165 164 171 180 175 179 189 200 199 208 176 182 193 206 248 286 305 313 322 328 325 315 307 303 302 300 299 298 296 296 297 297
130 142 143 146 157 164 166 160 162 157 156 145 139 146 145 142 152 166 183 191 203 214 182 196 212 256 298 319 326 328 327 326 320 314 304 299 300 298 297 297 297 296 294
111 113 126 160 149 164 159 149 151 147 145 139 132 135 132 123 130 136 156 190 207 199 196 174 192 261 323 329 326 330 328 329 326 317 309 307 308 304 302 300 300 300 300
101 127 139 156 152 155 144 143 142 136 139 137 128 124 116 114 116 119 119 120 120 125 136 141 177 313 321 318 318 321 323 321 323 322 322 318 313 314 315 310 307 303 301
139 148 156 150 154 137 136 134 137 134 135 131 124 123 120 124 124 115 109 107 103 101 85 48 351 334 330 327 320 320 321 323 325 323 323 318 314 311 309 314 313 308 306
142 151 150 147 143 138 137 136 138 133 128 120 119 119 120 126 129 135 132 131 88 15 356 338 332 326 323 323 322 326 325 324 322 320 322 320 321 320 318 313 307 305 307
141 141 148 146 148 152 147 144 138 132 131 133 135 132 130 139 157 178 165 190 238 317 319 313 309 309 310 312 313 317 319 318 319 320 325 320 320 315 313 310 308 307 304
145 148 159 155 162 161 157 149 151 144 137 149 157 160 138 127 133 155 197 260 307 323 325 315 307 303 304 305 307 312 316 316 315 322 322 317 318 316 315 312 313 315 312
171 179 185 180 166 161 159 161 169 178 190 183 187 175 160 165 205 244 261 276 291 303 301 302 305 296 292 297 303 310 308 308 310 314 316 311 315 314 319 317 316 314 314
201 195 188 178 184 185 186 190 195 194 193 204 210 216 216 225 255 271 278 283 288 288 290 295 297 291 290 299 305 304 304 307 306 310 315 308 314 315 319 316 315 314 316
172 171 170 179 179 178 176 182 196 208 226 229 232 242 257 267 277 287 287 292 293 297 295 298 292 289 294 301 302 302 308 307 308 312 312 313 317 315 316 315 313 315 315
137 148 154 157 157 161 177 183 215 228 243 251 258 263 271 277 280 284 286 293 290 294 290 284 280 286 293 294 299 301 307 309 311 310 312 310 311 314 314 305 306 311 314